Regional Weather Roundup
Issued by NWS

Home | Current Version | Previous Version | Text Only | Print | Product List | Glossary On
Versions: 1 2 3 4 5 6 7 8 9 10 11 12 13 14 15 16 17 18 19 20 21 22 23 24 25 26 27 28 29 30 31 32 33 34 35 36 37 38 39 40 41 42 43 44 45 46 47 48 49
000
ASUS46 KSEW 040310
RWRWA

WASHINGTON REGIONAL WEATHER ROUNDUP
NATIONAL WEATHER SERVICE SEATTLE WA
800 PM PDT MON AUG 03 2015

NOTE:"FAIR" INDICATES FEW OR NO CLOUDS BELOW 12,000 FEET WITH NO
SIGNIFICANT WEATHER AND/OR OBSTRUCTIONS TO VISIBILITY.

WAZ505-507>509-040400-
SEATTLE, TACOMA, EVERETT, AND VICINITY

CITY           SKY/WX    TMP DP  RH WIND       PRES   REMARKS
EVERETT        PTCLDY    66  55  67 N9        29.92S
BOEING FIELD   PTCLDY    78  54  43 NW12      29.88R
RENTON         PTCLDY    81  55  40 W6        29.87R
SEATAC AIRPORT PTCLDY    76  55  48 W7        29.90R
JBLM-MCCHORD   PTCLDY    74  57  55 W9        29.90R
PUYALLUP       FAIR      75  59  57 VRB5      29.91R
BREMERTON      CLEAR     75  55  50 S8        29.93R
JBLM-FT LEWIS  PTCLDY    74  56  54 SW12      29.90R
TACOMA NARROWS CLEAR     71  56  58 VRB7      29.91R
$$

WAZ001-503-506-510-514-515-040400-
NORTH INTERIOR

CITY           SKY/WX    TMP DP  RH WIND       PRES   REMARKS
BELLINGHAM     CLEAR     69  55  60 S9        29.88S
FRIDAY HARBOR  PTCLDY    68  53  58 CALM      29.90R
EASTSOUND      PTCLDY    68  55  64 N3        29.87S
PORT ANGELES   CLEAR     62  55  77 W8        29.93S
PORT TOWNSEND  NOT AVBL
NAS WHIDBEY    MOCLDY    61  54  77 SW14G21   29.94S
ARLINGTON      CLEAR     70  52  52 NW9       29.93R
BURLINGTON     CLEAR     66  54  63 S14       29.90F
$$

WAZ020-022-039-040-504-511-512-040400-
SOUTHWEST INTERIOR

CITY           SKY/WX    TMP DP  RH WIND       PRES   REMARKS
SHELTON        CLEAR     70  55  59 SW13      29.89R
OLYMPIA        PTCLDY    70  55  59 SW10      29.91R
CHEHALIS       NOT AVBL
KELSO          MOCLDY    70  55  60 W8        29.97S
VANCOUVER      CLOUDY    79  52  38 NW8       29.90R
SCAPPOOSE, OR  MOCLDY    76  56  49 NW6       29.90R
PORTLAND, OR   CLOUDY    79  55  43 N6        29.90R
$$

WAZ021-516-517-040400-
WASHINGTON COAST

CITY           SKY/WX    TMP DP  RH WIND       PRES   REMARKS
FORKS          PTCLDY    61  56  83 NW6       29.98S
HOQUIAM        CLEAR     63  56  78 W10       29.97S
ASTORIA, OR    CLOUDY    65  58  78 NW10      29.99R
$$

WAZ019-023-024-040-518-519-040400-
CASCADE MOUNTAINS AND COLUMBIA GORGE

CITY           SKY/WX    TMP DP  RH WIND       PRES   REMARKS
TROUTDALE, OR  CLOUDY    79  54  41 VRB3      29.89R
THE DALLES, OR CLOUDY    81  50  33 NW14      29.81R
$$

WAZ026-027-041>044-520-521-040400-
EAST SLOPES

CITY           SKY/WX    TMP DP  RH WIND       PRES   REMARKS
OMAK           CLOUDY    83  42  23 S7        29.75R
WENATCHEE      CLOUDY    84  42  22 NW16      29.79S
ELLENSBURG     MOCLDY    79  47  32 NW20      29.86R
YAKIMA         MOCLDY    81  53  37 CALM      29.82R
$$

WAZ028-034-035-040400-
COLUMBIA BASIN

CITY           SKY/WX    TMP DP  RH WIND       PRES   REMARKS
EPHRATA        CLOUDY    82  47  29 S5        29.78S
MOSES LAKE     CLOUDY    83  50  31 S8        29.79S
PASCO          CLOUDY    85  45  24 SW6       29.77S
HERMISTON, OR  MOCLDY    83  48  29 SE7       29.78S
$$

WAZ036>038-040400-
NORTHEAST WASHINGTON

CITY           SKY/WX    TMP DP  RH WIND       PRES   REMARKS
SPOKANE GEIGER CLOUDY    81  44  27 W20G28    29.87R
SPOKANE FELTS  CLOUDY    84  45  25 W13G25    29.85R
FAIRCHILD AFB  CLOUDY    78  45  30 W16       29.88R
COEURDALENE,ID CLOUDY    82  43  24 SW16G23   29.82S
DEER PARK      CLOUDY    82  44  26 NW12      29.85R
$$

WAZ029>033-040400-
SOUTHEAST WASHINGTON

CITY           SKY/WX    TMP DP  RH WIND       PRES   REMARKS
PULLMAN        CLOUDY    78  45  30 W10       29.91R
LEWISTON, ID   CLOUDY    85  44  23 NW14G21   29.83R
WALLA WALLA    CLOUDY    83  49  30 SE8       29.81F
PENDLETON, OR  MOCLDY    82  44  26 SE5       29.83F
$$



USA.gov is the U.S. government's official web portal to all federal, state and local government web resources and services.